Weather observations for the past three days for
Cocoa - Patrick Air Force Base
| Date | Time (edt) | Wind (kph) | Vis. (km) | Weather | Sky Cond. | Temperature (ºC) | Relative Humidity | Wind Chill (°C) | Heat Index (°C) | Pressure | Precipitation (cm) | ||||||
|---|---|---|---|---|---|---|---|---|---|---|---|---|---|---|---|---|---|
| Air | Dwpt | 6 hour | altimeter (cm) | sea level (mb) | 1 hr | 3 hr | 6 hr | ||||||||||
| Max. | Min. | ||||||||||||||||
| 04 | 22:55 | E 24 | 16.09 | Fair | CLR | 23.4 | 17.4 | 69% | 76.15 | 1015.7 | |||||||
| 04 | 21:55 | E 19 | 16.09 | Fair | CLR | 23.3 | 17 | 68% | 76.15 | 1015.7 | |||||||
| 04 | 20:55 | E 20 | 16.09 | Fair | CLR | 23.4 | 16.7 | 66% | 76.12 | 1015.3 | |||||||
| 04 | 19:55 | E 22 | 16.09 | Partly Cloudy | FEW037 SCT050 | 23.8 | 16.6 | 26.6 | 23.7 | 64% | 76.1 | 1015.0 | |||||
| 04 | 18:55 | E 20 | 16.09 | Fair | CLR | 24.6 | 16.8 | 62% | 26 | 76.07 | 1014.7 | ||||||
| 04 | 17:55 | E 20 | 16.09 | Fair | CLR | 24.7 | 15.6 | 57% | 26 | 76.1 | 1015.0 | ||||||
| 04 | 16:55 | E 24 | 16.09 | Fair | CLR | 25.6 | 15.6 | 54% | 26 | 76.1 | 1015.0 | ||||||
| 04 | 15:55 | E 22 | 16.09 | A Few Clouds | FEW200 | 25.7 | 16 | 55% | 26 | 76.12 | 1015.3 | ||||||
| 04 | 14:55 | E 24 | 16.09 | A Few Clouds | FEW190 | 26.4 | 15.7 | 52% | 27 | 76.17 | 1016.0 | ||||||
| 04 | 13:55 | E 24 | 16.09 | A Few Clouds | FEW038 FEW160 | 25.3 | 15.9 | 27 | 23.9 | 56% | 26 | 76.23 | 1016.7 | ||||
| 04 | 12:55 | NE 26 | 16.09 | A Few Clouds | FEW039 FEW047 | 25.3 | 15.3 | 54% | 26 | 76.23 | 1016.7 | ||||||
| 04 | 11:55 | NE 24 G 39 | 16.09 | A Few Clouds | FEW150 | 26 | 16.2 | 55% | 27 | 76.25 | 1017.0 | ||||||
| 04 | 10:55 | NE 33 | 16.09 | A Few Clouds and Breezy | FEW210 | 25.9 | 16.4 | 56% | 27 | 76.25 | 1017.0 | ||||||
| 04 | 09:55 | NE 30 | 16.09 | Fair | CLR | 24.2 | 15.9 | 60% | 25 | 76.2 | 1016.3 | ||||||
| 04 | 08:55 | NE 30 | 16.09 | Fair | CLR | 24.3 | 16 | 60% | 25 | 76.15 | 1015.7 | ||||||
| 04 | 07:55 | NE 26 | 16.09 | A Few Clouds | FEW035 | 23.8 | 15.3 | 23.8 | 22.9 | 59% | 76.12 | 1015.3 | |||||
| 04 | 06:55 | NE 26 | 16.09 | Fair | CLR | 23 | 16 | 65% | 76.1 | 1015.0 | |||||||
| 04 | 05:55 | NE 24 | 16.09 | Fair | CLR | 23.2 | 16.2 | 65% | 76.07 | 1014.7 | |||||||
| 04 | 04:55 | NE 26 | 16.09 | Mostly Cloudy | SCT031 BKN043 | 23.4 | 17.1 | 68% | 76.05 | 1014.3 | |||||||
| 04 | 03:55 | NE 22 | 16.09 | Partly Cloudy | FEW029 SCT046 | 23.5 | 17.2 | 68% | 76.02 | 1014.0 | |||||||
| 04 | 02:55 | NE 15 | 16.09 | A Few Clouds | FEW030 | 23.4 | 16.9 | 67% | 76.07 | 1014.7 | |||||||
| 04 | 01:55 | NE 19 | 16.09 | Fair | CLR | 23.6 | 17.1 | 23.8 | 23 | 67% | 76.12 | 1015.3 | |||||
| 04 | 00:55 | E 17 | 16.09 | A Few Clouds | FEW047 | 23.7 | 17.4 | 68% | 76.15 | 1015.7 | |||||||
| 03 | 23:55 | E 19 | 16.09 | A Few Clouds | FEW032 | 23.7 | 16.9 | 66% | 76.17 | 1016.0 | |||||||
| 03 | 22:55 | E 17 | 16.09 | A Few Clouds | FEW033 | 23.5 | 16.5 | 65% | 76.2 | 1016.3 | |||||||
| 03 | 21:55 | NE 22 | 16.09 | A Few Clouds | FEW045 | 23.4 | 16.4 | 65% | 76.17 | 1016.0 | |||||||
| 03 | 20:55 | E 22 | 16.09 | A Few Clouds | FEW034 | 23.1 | 16.1 | 65% | 76.15 | 1015.7 | |||||||
| 03 | 19:55 | NE 22 | 16.09 | A Few Clouds | FEW031 FEW042 | 23.5 | 17.2 | 25.2 | 22.8 | 68% | 76.1 | 1015.0 | |||||
| 03 | 18:55 | NE 20 | 16.09 | Mostly Cloudy | BKN039 | 23.8 | 17.3 | 67% | 76.1 | 1015.0 | |||||||
| 03 | 17:55 | NE 20 | 16.09 | A Few Clouds | FEW049 | 23.6 | 17.1 | 67% | 76.1 | 1015.0 | |||||||
| 03 | 16:55 | NE 24 | 16.09 | Mostly Cloudy | BKN032 | 23.7 | 17.4 | 68% | 76.12 | 1015.3 | |||||||
| 03 | 15:55 | NE 24 | 16.09 | A Few Clouds | FEW160 FEW190 | 24.6 | 17.6 | 65% | 26 | 76.15 | 1015.7 | ||||||
| 03 | 14:55 | NE 24 | 16.09 | Partly Cloudy | FEW031 SCT190 | 24.4 | 17.4 | 65% | 25 | 76.2 | 1016.3 | ||||||
| 03 | 13:55 | N 28 | 16.09 | A Few Clouds | FEW027 FEW180 | 23.6 | 17.6 | 24.1 | 21.1 | 69% | 76.25 | 1017.0 | |||||
| 03 | 12:55 | N 19 | 16.09 | Partly Cloudy | SCT030 | 23.4 | 17.4 | 69% | 76.25 | 1017.0 | |||||||
| 03 | 11:55 | NE 19 | 16.09 | Light Drizzle | BKN029 | 23.1 | 17.5 | 71% | 76.28 | 1017.4 | |||||||
| 03 | 10:55 | NE 26 | 16.09 | A Few Clouds | FEW027 | 22.7 | 17.6 | 73% | 76.25 | 1017.0 | |||||||
| 03 | 09:55 | N 26 G 35 | 16.09 | Fair | CLR | 22.3 | 17.4 | 74% | 76.17 | 1016.0 | |||||||
| 03 | 08:55 | N 19 | 16.09 | Mostly Cloudy | BKN039 | 22 | 17.3 | 75% | 76.15 | 1015.7 | |||||||
| 03 | 07:55 | N 17 | 16.09 | Partly Cloudy | SCT036 | 21 | 18 | 21.8 | 20.1 | 83% | 76.1 | 1015.0 | |||||
| 03 | 06:55 | N 20 | 16.09 | Fair | CLR | 20.5 | 18.1 | 86% | 76.05 | 1014.3 | |||||||
| 03 | 05:55 | N 20 | 16.09 | Light Rain | FEW010 | 20.2 | 18.5 | 90% | 76.05 | 1014.3 | |||||||
| 03 | 04:55 | N 19 G 30 | 16.09 | Light Rain | FEW003 SCT010 | 20.7 | 19 | 90% | 76 | 1013.6 | |||||||
| 03 | 03:55 | N 19 | 16.09 | Partly Cloudy | FEW012 SCT027 | 21 | 18.7 | 87% | 75.97 | 1013.3 | |||||||
| 03 | 02:55 | N 24 | 16.09 | Mostly Cloudy | BKN008 | 20.7 | 19 | 90% | 75.97 | 1013.3 | |||||||
| 03 | 01:55 | N 28 G 37 | 16.09 | Light Rain | FEW044 | 21.9 | 19.6 | 24.8 | 21.9 | 87% | 76 | 1013.6 | |||||
| 03 | 00:55 | W 26 | 16.09 | Mostly Cloudy | BKN046 | 23.9 | 20 | 79% | 24 | 75.97 | 1013.3 | ||||||
| 02 | 23:55 | W 24 | 16.09 | Mostly Cloudy | BKN050 | 24.6 | 19.4 | 73% | 25 | 75.9 | 1012.3 | ||||||
| 02 | 22:55 | W 15 | 16.09 | A Few Clouds | FEW160 | 23.7 | 20 | 80% | 75.87 | 1011.9 | |||||||
| 02 | 21:55 | W 17 | 16.09 | Fair | CLR | 23.9 | 20.4 | 81% | 24 | 75.82 | 1011.3 | ||||||
| 02 | 20:55 | SW 19 | 16.09 | Fair | CLR | 24.1 | 20.2 | 79% | 25 | 75.74 | 1010.2 | ||||||
| 02 | 19:55 | SW 30 | 16.09 | Fair | CLR | 24 | 20.3 | 31.9 | 23.9 | 80% | 24 | 75.72 | 1009.9 | ||||
| 02 | 18:55 | W 31 | 16.09 | Fair | CLR | 24.8 | 18.9 | 70% | 26 | 75.72 | 1009.9 | ||||||
| 02 | 17:55 | W 28 | 16.09 | Overcast | SCT090 SCT130 OVC200 | 24.2 | 19.2 | 74% | 25 | 75.69 | 1009.6 | ||||||
| 02 | 16:55 | NW 41 G 52 | 16.09 | Fair and Breezy | CLR | 26.4 | 19.5 | 66% | 28 | 75.74 | 1010.2 | ||||||
| 02 | 15:55 | W 26 | 16.09 | Partly Cloudy | SCT190 | 31.2 | 20.7 | 54% | 34 | 75.64 | 1008.9 | ||||||
| 02 | 14:55 | W 24 | 16.09 | Partly Cloudy | FEW100 SCT200 | 31.6 | 20.5 | 52% | 34 | 75.72 | 1009.9 | ||||||
| 02 | 13:55 | SW 22 | 16.09 | Mostly Cloudy | BKN100 BKN200 | 31.4 | 20.9 | 31.7 | 23.3 | 54% | 34 | 75.69 | 1009.6 | ||||
| 02 | 12:55 | W 17 | 16.09 | Light Rain | SCT039 SCT110 BKN140 BKN190 | 30.9 | 21.6 | 58% | 34 | 75.74 | 1010.2 | ||||||
| 02 | 11:55 | SW 19 | 16.09 | Partly Cloudy | FEW150 SCT190 SCT210 | 29.9 | 21.5 | 61% | 33 | 75.77 | 1010.6 | ||||||
| 02 | 10:55 | SW 19 | 16.09 | Partly Cloudy | FEW055 FEW070 SCT200 | 28.3 | 21.5 | 67% | 31 | 75.79 | 1010.9 | ||||||
| 02 | 09:55 | SW 20 | 16.09 | A Few Clouds | FEW024 FEW200 | 27.3 | 18.6 | 59% | 28 | 75.77 | 1010.6 | ||||||
| 02 | 08:55 | SW 17 | 16.09 | Fair | CLR | 25.6 | 20.8 | 75% | 27 | 75.74 | 1010.2 | ||||||
| 02 | 07:55 | SW 15 | 16.09 | Fair | CLR | 23.4 | 21.3 | 25 | 22.2 | 88% | 75.74 | 1010.2 | |||||
| 02 | 06:55 | SW 11 | 16.09 | Fair | CLR | 22.2 | 20.5 | 90% | 75.69 | 1009.6 | |||||||
| 02 | 05:55 | W 13 | 16.09 | Fair | CLR | 22.6 | 20.1 | 86% | 75.69 | 1009.6 | |||||||
| 02 | 04:55 | SW 19 | 16.09 | Mostly Cloudy | BKN200 | 23.4 | 20.3 | 83% | 75.72 | 0.0 | |||||||
| 02 | 03:55 | W 17 | 16.09 | A Few Clouds | FEW210 | 23.8 | 20.1 | 80% | 75.69 | 1009.6 | |||||||
| 02 | 02:55 | SW 19 | 16.09 | Partly Cloudy | SCT210 | 24.4 | 19.7 | 75% | 25 | 75.69 | 1009.6 | ||||||
| 02 | 01:55 | SW 19 | 16.09 | Partly Cloudy | SCT200 | 25 | 19.6 | 27 | 24.9 | 72% | 26 | 75.72 | 1009.9 | ||||
| 02 | 00:55 | SW 15 | 16.09 | Fair | CLR | 25.7 | 19.8 | 70% | 27 | 75.72 | 1009.9 | ||||||
| 01 | 23:55 | S 19 | 16.09 | Fair | CLR | 26.4 | 20.9 | 72% | 28 | 75.72 | 1009.9 | ||||||
| Date | Time (edt) | Wind (kph) | Vis. (km) | Weather | Sky Cond. | Air | Dwpt | Max. | Min. | Relative Humidity | Wind Chill (°C) | Heat Index (°C) | altimeter (cm) | sea level (mb) | 1 hr | 3 hr | 6 hr |
| 6 hour | |||||||||||||||||
| Temperature (ºC) | Pressure | Precipitation (cm) | |||||||||||||||